Regional Weather Roundup
Issued by NWS

Home | Current Version | Previous Version | Text Only | Print | Product List | Glossary Off
Versions: 1 2 3 4 5 6 7 8 9 10 11 12 13 14 15 16 17 18 19 20 21 22 23 24 25 26 27 28 29 30 31 32 33 34 35 36 37 38 39 40 41 42 43 44 45 46 47 48 49 50

000
ASUS43 KFSD 060602
RWRSD

WEATHER ROUNDUP FOR SOUTH DAKOTA
NATIONAL WEATHER SERVICE SIOUX FALLS SD
1200 AM CST TUE DEC 06 2016

NOTE: "FAIR" INDICATES FEW OR NO CLOUDS BELOW 12,000 FEET WITH NO
SIGNIFICANT WEATHER AND/OR OBSTRUCTIONS TO VISIBILITY.


SDZ001>005-009-010-012>017-060700-
NORTHWEST AND NORTH CENTRAL SOUTH DAKOTA

CITY           SKY/WX    TMP DP  RH WIND       PRES   REMARKS
BUFFALO          N/A      8   1  73 NW35G48   29.81R WCI -16
FAITH            N/A     10   6  84 W32G44    29.84R WCI -13
MOBRIDGE       CLEAR     13   4  67 NW26G40   29.76R BLWGSNOWWCI  -7
$$

SDZ012>016-024>037-041>051-057-063-072>074-060700-
SOUTHWEST AND SOUTH CENTRAL SOUTH DAKOTA

CITY           SKY/WX    TMP DP  RH WIND       PRES   REMARKS
RAPID CTY ARPT CLEAR     17   3  54 NW17      29.87F WCI   1
PIERRE         MOCLDY    14   5  67 NW29G41   29.89R WCI  -7
CUSTER         CLEAR     10  -6  48 NW12G29   29.76R WCI  -5
ELLSWORTH AFB  PTCLDY    15   4  60 N14       29.87F WCI   1
PHILIP         PTCLDY    16   7  67 W24G30    29.93S WCI  -2
PINE RIDGE     CLEAR     15   9  76 W13       29.92R WCI   1
SPEARFISH      FAIR      12   0  57 W14       29.91R WCI  -3
WINNER         FAIR      18   9  68 NW21G26   29.92R WCI   1
$$

SDZ004>011-016>023-039-040-060700-
NORTHEAST SOUTH DAKOTA

CITY           SKY/WX    TMP DP  RH WIND       PRES   REMARKS
ABERDEEN       CLOUDY    17   8  67 W18G38    29.72S WCI   1
WATERTOWN      FLURRIES  18  12  77 W24G39    29.67S WCI   0
SISSETON         N/A     20  12  71 W33G48    29.56F WCI   0
$$

SDZ017-020-022-023-036>040-048>070-060700-
SOUTHEAST SOUTH DAKOTA

CITY           SKY/WX    TMP DP  RH WIND       PRES   REMARKS
SIOUX FALLS    CLOUDY    23  15  71 W18G35    29.81R WCI   9
HURON          PTCLDY    16   9  74 W23G29    29.84R WCI  -2
MITCHELL       PTCLDY    19  11  70 NW26G32   29.88R WCI   1
YANKTON        MOCLDY   N/A N/A N/A W25G32    29.89R
$$

ABBREVIATIONS USED IN REMARKS
   TC - TEMPERATURE IN CELSIUS
  WCI - WIND CHILL INDEX
   HX - HEAT INDEX
  VSB - VISIBILITY




USA.gov is the U.S. government's official web portal to all federal, state and local government web resources and services.